Date,TemperatureHighF,TemperatureAvgF,TemperatureLowF,DewpointHighF,DewpointAvgF,DewpointLowF,HumidityHigh,HumidityAvg,HumidityLow,PressureMaxIn,PressureMinIn,WindSpeedMaxMPH,WindSpeedAvgMPH,GustSpeedMaxMPH,PrecipitationSumIn
2013-1-1,27,14,4,24,11,1,93,89,84,30.28,30.01,15,3,20,0.00
2013-1-2,28,23,16,26,20,12,92,88,85,30.36,30.01,13,6,20,0.00
2013-1-3,31,20,14,15,13,11,90,75,49,30.35,30.09,12,4,14,0.00
2013-1-4,28,18,12,16,11,8,84,74,60,30.16,30.00,6,1,10,0.00
2013-1-5,18,13,6,14,10,3,89,85,81,30.25,29.99,17,4,22,0.00
2013-1-6,29,18,10,21,14,7,91,84,68,30.26,29.82,12,3,16,0.00
2013-1-7,32,26,13,22,19,10,90,75,64,29.91,29.80,10,3,21,0.00
2013-1-8,37,28,13,29,23,10,92,79,67,29.96,29.64,18,6,27,0.03
2013-1-9,32,25,14,26,19,10,87,78,65,30.11,29.85,14,4,21,0.00
2013-1-10,36,31,22,30,26,20,92,83,75,29.84,29.49,12,4,16,0.01
2013-1-11,21,10,3,19,7,0,92,88,86,29.91,29.53,22,11,27,0.00
2013-1-12,3,0,-4,0,-5,-8,86,79,74,30.34,29.91,20,8,28,0.00
2013-1-13,5,-1,-5,0,-5,-9,85,82,77,30.38,30.28,11,2,14,0.00
2013-1-14,11,1,-8,4,-4,-12,86,81,69,30.39,30.18,6,2,9,0.00
2013-1-15,36,21,8,32,17,4,93,83,74,30.17,29.72,15,5,25,0.01
2013-1-16,36,27,18,32,23,14,90,86,81,30.21,29.74,12,4,19,0.00
2013-1-17,28,23,18,25,19,14,92,85,74,30.42,29.92,12,4,18,0.00
2013-1-18,41,35,27,31,28,25,90,76,67,29.91,29.72,7,2,12,0.00
2013-1-19,35,13,-2,29,6,-8,84,76,68,30.43,29.73,26,10,42,0.00
2013-1-20,2,-5,-12,-2,-11,-18,84,74,64,30.67,30.41,21,7,35,0.00
2013-1-21,1,-5,-13,-6,-12,-19,77,73,66,30.60,30.45,10,4,18,0.00
2013-1-22,12,6,-3,9,1,-7,88,81,74,30.45,30.24,10,2,14,0.00
2013-1-23,10,-1,-6,5,-6,-12,82,77,71,30.64,30.30,13,5,18,0.00
2013-1-24,23,5,-5,20,0,-10,86,80,75,30.61,30.06,20,7,26,0.00
2013-1-25,18,4,-2,15,-2,-9,85,75,60,30.34,30.13,22,7,30,0.00
2013-1-26,31,18,2,23,13,-3,89,83,71,30.18,29.95,9,4,15,0.00
2013-1-27,30,18,12,21,14,8,90,84,71,29.94,29.79,4,1,6,0.00
2013-1-28,32,26,20,26,23,18,94,88,71,29.87,29.78,6,1,9,0.00
2013-1-29,22,12,-2,21,10,-7,94,89,80,30.19,29.75,18,4,26,0.00
2013-1-30,-2,-9,-15,-7,-15,-20,82,76,70,30.25,30.09,24,9,28,0.00
2013-1-31,-11,-16,-20,-18,-22,-26,82,74,68,30.57,30.26,17,6,27,0.00
2013-2-1,19,6,-15,17,2,-19,92,84,79,30.41,30.12,12,4,19,0.00
2013-2-2,32,12,0,28,8,-4,94,85,81,30.26,30.03,29,7,37,0.00
2013-2-3,20,16,10,17,12,6,88,85,78,30.21,29.95,6,2,9,0.00
2013-2-4,38,25,10,31,21,7,92,85,75,30.06,29.67,15,5,19,0.01
2013-2-5,33,26,18,28,21,14,88,81,73,29.98,29.72,11,3,18,0.00
2013-2-6,31,23,16,26,20,14,93,88,77,30.15,29.75,9,4,13,0.00
2013-2-7,23,18,13,22,15,11,94,91,90,30.25,30.14,4,2,9,0.00
2013-2-8,24,22,19,23,21,17,94,93,92,30.18,29.98,11,2,17,0.00
2013-2-9,28,23,15,25,21,13,94,93,88,29.98,29.87,7,1,10,0.00
2013-2-10,27,20,12,25,18,10,95,93,90,30.05,29.83,18,6,23,0.00
2013-2-11,25,20,16,19,16,13,92,86,76,30.12,29.88,22,6,24,0.00
2013-2-12,34,27,19,27,22,15,86,80,72,29.96,29.82,9,3,16,0.00
2013-2-13,35,31,27,31,28,24,95,89,79,29.82,29.61,16,4,24,0.09
2013-2-14,30,21,13,27,17,9,91,84,75,30.34,29.80,15,6,20,0.00
2013-2-15,19,15,8,14,11,6,90,83,73,30.47,30.16,7,3,11,0.00
2013-2-16,37,27,19,28,23,14,92,86,69,30.15,29.78,6,2,8,0.01
2013-2-17,44,33,20,33,28,18,94,84,65,29.77,29.48,21,5,24,0.01
2013-2-18,20,8,-5,17,4,-10,91,83,77,30.41,29.69,27,12,29,0.00
2013-2-19,1,-8,-15,-8,-15,-21,80,72,55,30.60,30.41,13,4,16,0.00
2013-2-20,12,2,-10,6,-4,-14,85,77,70,30.53,30.27,10,5,17,0.00
2013-2-21,23,16,10,17,12,7,88,83,75,30.29,30.16,8,3,13,0.00
2013-2-22,30,18,11,20,13,7,90,82,67,30.16,29.87,7,2,9,0.01
2013-2-23,36,22,9,27,18,7,91,84,68,29.86,29.75,7,3,10,0.04
2013-2-24,32,24,20,31,16,-100,95,81,78,30.11,29.86,13,-49,20,0.00
2013-2-25,44,30,17,28,21,13,86,72,53,30.09,29.88,13,4,16,0.00
2013-2-26,37,29,21,28,23,17,92,79,62,30.15,29.87,18,4,20,0.00
2013-2-27,27,23,17,25,20,15,93,89,82,30.37,30.15,11,5,15,0.00
2013-2-28,28,22,18,22,18,15,90,85,77,30.38,30.31,5,1,9,0.00
2013-3-1,26,22,18,24,20,16,92,89,84,30.43,30.23,8,2,14,0.00
2013-3-2,39,29,24,32,26,22,93,88,76,30.23,29.98,10,4,15,0.01
2013-3-3,38,30,24,32,27,22,95,91,77,29.98,29.62,6,3,12,0.05
2013-3-4,32,23,15,31,22,13,96,92,89,30.25,29.60,15,6,21,0.00
2013-3-5,18,13,8,14,10,6,91,87,80,30.51,30.25,9,3,13,0.00
2013-3-6,20,11,3,14,8,1,91,86,77,30.50,30.19,8,2,14,0.00
2013-3-7,28,21,12,24,18,9,91,87,83,30.23,30.09,7,3,14,0.00
2013-3-8,26,20,13,20,16,11,94,86,66,30.27,30.09,6,2,8,0.02
2013-3-9,29,20,9,25,17,6,91,87,81,30.28,29.98,14,4,20,0.01
2013-3-10,22,12,3,14,7,0,88,82,66,30.42,30.15,7,3,11,0.00
2013-3-11,32,24,14,27,19,11,92,83,72,30.14,29.90,18,6,31,0.00
2013-3-12,22,16,9,19,11,5,91,82,67,30.39,30.06,20,8,28,0.00
2013-3-13,46,26,7,34,18,3,88,73,50,30.39,29.99,15,4,19,0.02
2013-3-14,50,36,23,39,31,19,93,82,62,30.11,30.01,8,3,14,0.00
2013-3-15,23,12,0,20,8,-3,88,85,82,30.28,29.99,10,4,15,0.00
2013-3-16,11,3,-5,5,-2,-8,86,81,73,30.37,30.28,11,3,12,0.00
2013-3-17,22,15,6,19,11,2,92,86,81,30.28,29.61,12,5,23,0.00
2013-3-18,16,8,2,13,3,-2,90,79,69,30.12,29.68,24,9,32,0.00
2013-3-19,13,7,2,6,2,-2,87,80,71,30.54,30.11,15,4,24,0.00
2013-3-20,23,10,-1,10,3,-4,88,75,55,30.54,30.19,9,2,13,0.00
2013-3-21,23,11,0,12,4,-5,82,74,57,30.18,30.04,10,4,14,0.00
2013-3-22,22,16,11,17,12,7,88,82,78,30.19,30.07,7,2,9,0.00
2013-3-23,20,16,13,15,12,9,91,85,75,30.32,30.19,10,3,14,0.00
2013-3-24,21,16,6,16,12,3,91,85,73,30.44,30.28,15,5,17,0.00
2013-3-25,19,8,1,14,5,-2,90,85,78,30.52,30.43,7,2,9,0.00
2013-3-26,31,16,6,22,12,3,90,83,68,30.43,30.25,8,3,12,0.00
2013-3-27,37,22,9,28,18,7,92,84,68,30.28,30.21,6,2,9,0.03
2013-3-28,38,24,10,32,21,8,93,90,79,30.26,30.21,5,1,6,0.00
2013-3-29,47,28,13,38,25,11,94,89,71,30.25,30.04,10,1,12,0.01
2013-3-30,40,33,27,33,30,24,95,87,75,30.08,30.01,16,4,26,0.00
2013-3-31,29,24,16,25,17,12,88,77,59,30.33,30.05,16,5,24,0.00
2013-4-1,28,19,11,15,11,8,89,72,46,30.39,30.32,7,2,8,0.00
2013-4-2,39,26,16,24,18,11,90,71,48,30.36,30.17,11,3,17,0.00
2013-4-3,52,35,26,33,27,21,85,74,45,30.17,29.89,19,7,21,0.00
2013-4-4,35,29,25,26,23,20,89,77,60,30.29,30.17,14,4,17,0.00
2013-4-5,46,31,23,28,23,18,90,75,44,30.20,29.72,11,4,17,0.00
2013-4-6,35,31,28,31,28,26,93,90,84,29.90,29.67,14,4,16,0.00
2013-4-7,48,35,29,38,31,27,95,85,68,29.90,29.68,13,3,18,0.00
2013-4-8,31,21,11,30,18,7,96,89,78,30.44,29.75,17,7,22,0.00
2013-4-9,27,20,10,19,15,6,86,78,68,30.54,30.43,12,6,16,0.00
2013-4-10,37,25,18,22,18,15,90,75,48,30.50,30.11,10,4,13,0.00
2013-4-11,34,28,25,25,21,17,92,75,64,30.10,29.91,11,3,14,0.00
2013-4-12,32,27,22,27,24,21,93,88,77,30.01,29.96,9,3,10,0.01
2013-4-13,37,31,27,29,26,24,93,85,69,29.98,29.74,13,4,17,0.00
2013-4-14,27,25,23,26,23,20,95,90,83,29.79,29.69,19,10,24,0.00
2013-4-15,32,28,24,27,25,22,95,89,80,30.12,29.77,19,8,24,0.01
2013-4-16,33,26,18,26,22,16,93,88,74,30.43,30.12,8,2,9,0.01
2013-4-17,30,25,21,24,22,18,94,86,72,30.44,30.29,13,3,15,0.00
2013-4-18,28,18,15,22,15,11,90,85,75,30.29,30.19,7,3,10,0.00
2013-4-30,38,34,28,30,25,21,76,69,60,30.17,29.58,20,9,32,0.00
2013-5-1,46,33,23,23,21,19,87,63,35,30.66,30.17,12,4,17,0.00
2013-5-2,50,38,24,27,21,16,86,56,28,30.72,30.49,7,2,12,0.00
2013-5-3,56,41,25,27,22,17,82,51,23,30.48,30.24,7,3,12,0.00
2013-5-4,57,43,27,29,24,18,88,53,23,30.35,30.26,7,2,12,0.00
2013-5-5,64,49,32,30,27,22,74,45,26,30.29,30.08,11,2,11,0.00
2013-5-6,68,55,41,33,29,25,57,39,21,30.10,29.93,7,2,11,0.00
2013-5-7,76,60,41,40,35,29,68,41,25,29.95,29.77,9,2,15,0.00
2013-5-8,62,52,42,39,35,24,81,53,31,30.17,29.82,17,5,20,0.00
2013-5-9,60,46,31,27,23,19,74,44,20,30.27,30.14,10,4,13,0.00
2013-5-10,61,48,36,38,29,24,69,50,35,30.25,29.98,18,7,24,0.00
2013-5-11,53,42,31,31,21,11,80,48,20,30.42,30.24,12,4,19,0.00
2013-5-12,73,53,31,31,23,13,55,33,18,30.24,29.78,11,4,14,0.00
2013-5-13,84,70,56,45,40,30,48,33,23,29.78,29.48,13,4,19,0.00
2013-5-14,73,61,55,54,45,39,92,58,36,29.76,29.39,16,6,31,0.08
2013-5-15,73,62,48,42,38,34,69,44,26,29.85,29.77,9,2,11,0.00
2013-5-16,61,54,51,51,46,35,94,77,38,29.87,29.80,9,3,13,0.59
2013-5-17,71,58,49,58,52,47,95,82,63,29.86,29.71,5,2,10,0.11
2013-5-18,69,61,53,59,55,51,95,83,67,29.75,29.67,10,4,16,0.01
2013-5-19,57,52,50,55,51,49,96,96,93,29.73,29.56,15,8,23,1.46
2013-5-20,51,50,46,50,48,44,97,95,90,29.78,29.58,22,11,35,0.33
2013-5-21,51,46,42,47,43,40,95,90,84,29.97,29.79,23,8,24,0.08
2013-5-22,68,54,44,45,34,-100,93,57,31,30.11,29.97,15,-40,21,0.00
2013-5-23,68,57,44,46,42,37,88,61,33,30.22,30.06,15,4,18,0.00
2013-5-24,62,54,48,52,45,36,89,72,58,30.08,29.89,14,5,19,0.00
2013-5-25,67,55,46,59,52,45,96,90,72,30.02,29.86,8,2,14,0.51
2013-5-26,72,60,52,61,55,50,95,85,65,29.95,29.80,11,3,13,0.00
2013-5-27,59,55,51,56,53,50,97,94,86,29.84,29.61,7,2,13,0.28
2013-5-28,70,60,52,55,54,51,96,80,58,29.61,29.55,8,2,11,0.02
2013-5-29,73,63,50,59,55,49,94,76,57,29.62,29.46,9,3,15,0.00
2013-5-30,63,58,53,62,56,52,97,94,87,29.52,29.24,12,6,19,1.44
2013-5-31,61,52,46,60,51,45,97,95,92,29.83,29.29,14,7,22,0.41
2013-6-1,61,51,45,45,43,41,94,74,49,30.09,29.83,15,6,19,0.00
2013-6-2,66,55,41,45,42,38,90,64,40,30.09,29.93,4,1,9,0.00
2013-6-3,49,47,45,46,43,38,94,85,67,29.95,29.80,12,4,19,1.00
2013-6-4,50,48,46,48,46,45,96,95,90,30.04,29.84,12,4,15,0.73
2013-6-5,60,53,45,51,48,43,95,82,70,30.13,30.04,9,3,14,0.00
2013-6-6,70,58,46,52,46,42,95,68,37,30.07,29.95,6,1,8,0.00
2013-6-7,75,62,50,55,49,44,85,67,36,29.94,29.63,7,2,10,0.00
2013-6-8,62,58,55,59,56,54,96,93,75,29.78,29.59,6,2,12,1.28
2013-6-9,75,62,50,56,52,47,97,72,42,29.84,29.65,4,1,12,0.01
2013-6-10,74,65,54,58,53,48,94,67,46,29.79,29.64,7,2,11,0.00
2013-6-11,78,66,56,56,51,46,83,61,33,29.86,29.79,5,2,10,0.00
2013-6-12,72,62,56,57,54,51,92,76,57,30.03,29.84,6,2,8,0.06
2013-6-13,76,66,54,57,53,50,87,66,48,30.08,29.80,11,3,18,0.00
2013-6-14,75,65,57,63,55,47,90,71,47,29.82,29.65,6,2,13,0.02
2013-6-15,74,64,51,50,48,45,83,58,38,29.85,29.79,13,3,17,0.00
2013-6-16,72,65,56,53,50,45,79,60,47,29.90,29.81,17,3,17,0.00
2013-6-17,67,59,54,56,53,52,95,83,63,30.04,29.90,10,2,14,0.15
2013-6-18,78,65,50,58,54,49,96,71,45,30.04,29.84,6,1,8,0.01
2013-6-19,85,72,59,65,58,52,82,62,42,29.84,29.64,12,3,19,0.00
2013-6-20,75,68,64,68,62,54,94,80,57,29.77,29.52,8,3,16,0.13
2013-6-21,71,64,59,67,62,58,97,93,84,29.91,29.77,10,2,11,0.49
2013-6-22,74,66,59,64,61,57,97,85,69,29.85,29.66,6,2,12,0.69
2013-6-23,75,63,57,58,55,51,95,77,44,29.68,29.54,16,3,23,0.22
2013-6-24,85,71,56,67,59,50,81,68,43,29.71,29.55,5,2,10,0.00
2013-6-25,84,72,64,71,65,61,95,79,62,29.57,29.47,9,3,11,0.00
2013-6-26,82,71,60,64,59,54,90,68,46,29.79,29.57,8,2,11,0.02
2013-6-27,78,70,62,60,56,53,81,62,43,29.94,29.79,12,3,14,0.00
2013-6-28,76,68,59,63,58,53,90,72,47,30.02,29.94,12,3,17,0.00
2013-6-29,75,67,60,61,58,55,84,73,53,30.02,29.98,9,2,10,0.00
2013-6-30,79,70,60,60,55,51,86,61,39,30.11,30.03,5,1,9,0.00
2013-7-1,82,70,58,59,53,49,83,58,33,30.18,30.08,6,1,11,0.00
2013-7-2,84,72,58,58,53,49,80,55,30,30.09,29.94,9,1,10,0.00
2013-7-3,87,72,58,60,55,50,77,57,33,29.93,29.65,12,3,18,0.00
2013-7-4,80,71,60,68,59,54,90,67,47,29.69,29.58,10,3,14,0.32
2013-7-5,86,73,60,68,63,58,95,74,49,29.72,29.59,13,2,26,0.42
2013-7-6,82,70,62,68,63,59,96,82,58,29.77,29.63,6,2,8,0.01
2013-7-7,77,69,63,62,58,53,84,69,44,29.89,29.77,9,2,16,0.01
2013-7-8,88,71,60,69,60,54,87,70,46,29.89,29.73,6,2,27,0.09
2013-7-9,73,66,58,63,58,54,93,77,63,30.04,29.80,16,4,16,0.03
2013-7-10,80,66,52,63,57,51,93,74,46,30.05,29.89,6,1,8,0.00
2013-7-11,91,73,61,73,63,56,88,72,52,29.89,29.52,7,3,17,0.19
2013-7-12,86,75,69,69,66,61,91,76,53,29.76,29.50,6,2,14,0.08
2013-7-13,88,76,64,69,65,60,93,71,45,29.90,29.71,11,2,23,0.10
2013-7-14,69,64,58,63,58,55,94,83,70,30.14,29.90,13,4,20,0.00
2013-7-15,82,70,60,73,65,57,92,83,72,30.12,29.81,6,2,13,0.00
2013-7-16,77,71,63,66,63,59,90,77,65,30.11,29.83,10,3,17,0.00
2013-7-17,85,71,62,71,63,58,93,78,60,30.11,29.89,7,3,14,0.00
2013-7-18,85,72,62,71,64,57,95,77,46,29.89,29.70,20,3,20,0.00
2013-7-19,83,70,59,63,59,56,91,70,44,29.88,29.77,9,2,16,0.00
2013-7-20,72,63,56,60,57,53,95,81,62,29.93,29.83,8,2,15,0.25
2013-7-21,85,67,54,66,59,52,91,76,51,29.86,29.52,12,4,22,0.03
2013-7-22,69,63,58,61,56,54,92,79,61,29.91,29.67,12,4,17,0.00
2013-7-23,74,64,56,60,56,53,91,77,54,30.01,29.90,5,1,7,0.00
2013-7-24,79,69,58,63,59,55,93,73,53,30.00,29.89,8,2,10,0.00
2013-7-25,68,64,56,60,55,49,91,73,57,30.09,29.87,14,6,24,0.01
2013-7-26,67,58,52,52,48,44,91,71,48,30.25,30.09,8,3,12,0.00
2013-7-27,70,58,45,50,46,42,90,66,40,30.21,30.00,6,1,8,0.00
2013-7-28,75,61,48,52,46,42,83,61,39,30.01,29.87,8,2,16,0.00
2013-7-29,71,62,55,63,55,47,89,76,67,29.94,29.79,6,2,10,0.09
2013-7-30,74,63,55,62,58,53,96,84,57,30.07,29.94,5,1,10,0.02
2013-7-31,76,66,56,59,54,49,94,67,42,30.11,29.96,9,2,11,0.00
2013-8-1,76,65,51,58,53,47,88,66,44,30.01,29.88,7,2,9,0.00
2013-8-2,73,64,54,58,53,51,89,70,46,30.04,29.89,7,1,9,0.00
2013-8-3,76,64,58,59,55,50,89,71,54,30.14,30.04,5,2,10,0.02
2013-8-4,74,64,55,64,58,51,92,80,68,30.10,29.84,7,2,15,0.01
2013-8-5,79,66,58,60,57,54,96,76,45,29.88,29.69,7,2,14,0.26
2013-8-6,71,63,57,63,59,56,96,86,70,29.85,29.63,12,2,17,0.38
2013-8-7,70,61,55,57,54,49,95,79,56,29.99,29.86,6,2,10,0.17
2013-8-8,71,61,50,55,51,48,93,72,52,30.05,29.98,9,2,10,0.00
2013-8-9,69,61,53,55,51,47,85,71,53,30.13,30.05,11,3,14,0.00
2013-8-10,78,61,49,59,53,47,94,77,46,30.14,29.97,7,1,8,0.26
2013-8-11,74,64,56,58,55,51,95,73,46,30.08,30.00,5,1,10,0.01
2013-8-12,76,65,52,57,52,48,87,64,40,30.08,30.02,7,1,10,0.00
2013-8-13,77,65,53,56,52,48,88,65,43,30.15,30.04,6,2,10,0.00
2013-8-14,80,66,57,61,53,47,76,65,42,30.08,29.91,6,2,12,0.00
2013-8-15,82,68,59,61,58,54,95,73,44,29.97,29.91,8,2,11,0.25
2013-8-16,83,70,58,60,57,55,88,65,40,29.96,29.87,11,4,17,0.00
2013-8-17,88,72,57,68,62,55,94,71,44,29.87,29.71,12,3,14,0.00
2013-8-18,84,73,64,70,64,56,94,74,51,29.82,29.73,8,2,15,0.00
2013-8-19,96,77,61,66,59,55,83,58,26,29.80,29.62,9,2,13,0.00
2013-8-20,91,78,61,66,60,54,83,57,32,29.73,29.61,11,2,15,0.00
2013-8-21,78,68,57,61,53,47,90,63,40,30.04,29.74,7,2,13,0.00
2013-8-22,82,71,60,54,49,43,67,48,30,30.14,29.95,5,2,8,0.00
2013-8-23,89,74,61,68,61,51,79,65,46,29.95,29.64,12,3,20,0.00
2013-8-24,89,76,69,69,66,63,90,71,43,29.70,29.58,5,1,9,0.05
2013-8-25,89,77,68,67,62,54,93,63,33,29.83,29.70,4,0,6,0.00
2013-8-26,84,74,67,72,65,57,87,72,54,29.81,29.70,6,2,12,0.01
2013-8-27,78,71,64,70,65,62,94,83,63,29.86,29.74,7,1,15,0.00
2013-8-28,91,77,64,70,66,62,94,71,43,29.89,29.75,4,1,8,0.00
2013-8-29,82,73,63,69,66,62,96,79,60,29.87,29.68,17,2,17,0.38
2013-8-30,91,74,64,70,65,61,96,76,41,29.90,29.68,8,2,13,0.50
2013-8-31,77,70,65,64,59,53,90,70,44,29.86,29.67,14,5,20,0.02
2013-9-1,70,63,57,58,55,49,93,78,57,30.02,29.86,9,2,14,0.00
2013-9-2,84,66,52,61,54,47,85,66,41,30.02,29.84,9,2,12,0.00
2013-9-3,91,73,59,64,58,55,85,63,36,29.91,29.84,4,1,8,0.00
2013-9-4,82,68,54,61,55,48,90,66,42,30.07,29.92,4,2,8,0.00
2013-9-5,90,72,58,66,58,51,77,63,44,30.05,29.82,8,2,11,0.00
2013-9-6,91,77,64,69,65,61,90,68,44,29.86,29.74,5,1,7,0.00
2013-9-7,74,66,61,66,60,56,93,81,55,30.01,29.80,7,2,13,0.56
2013-9-8,76,66,59,67,62,56,95,87,73,29.95,29.68,7,1,8,0.44
2013-9-9,76,67,61,65,62,57,96,84,59,29.74,29.59,12,3,22,1.27
2013-9-10,80,68,59,61,57,54,93,72,41,29.93,29.75,8,2,15,0.00
2013-9-11,75,66,55,57,52,47,88,63,38,30.16,29.93,9,2,11,0.00
2013-9-12,70,61,52,51,48,45,91,66,42,30.28,30.14,4,1,6,0.00
2013-9-13,82,65,50,57,50,46,87,62,35,30.14,29.76,14,3,21,0.00
2013-9-14,71,62,55,61,54,47,88,75,54,30.00,29.68,9,2,18,0.00
2013-9-15,65,53,44,49,43,37,94,72,37,30.27,30.02,7,2,10,0.00
2013-9-16,71,56,44,55,48,40,95,77,52,30.23,29.85,12,4,20,0.00
2013-9-17,80,64,53,64,56,50,91,77,55,29.86,29.56,13,4,17,0.00
2013-9-18,74,65,58,64,60,56,95,85,70,29.62,29.45,8,2,18,0.00
2013-9-19,65,53,49,59,49,42,92,84,75,30.00,29.55,16,6,22,0.03
2013-9-20,63,52,43,47,42,39,92,70,44,30.02,29.92,10,3,17,0.00
2013-9-21,71,54,40,48,43,38,89,69,42,29.93,29.65,11,2,19,0.00
2013-9-22,79,62,46,61,52,43,90,72,49,29.64,29.32,8,1,10,0.00
2013-9-23,72,60,51,60,56,50,96,87,61,29.74,29.32,10,3,20,0.17
2013-9-24,73,57,43,50,45,40,95,68,32,29.89,29.74,5,2,8,0.01
2013-9-25,75,64,53,56,50,44,80,63,44,29.75,29.46,16,4,25,0.00
2013-9-26,66,58,51,57,51,42,94,79,59,29.81,29.41,12,3,15,0.13
2013-9-27,53,49,47,47,45,42,92,84,74,29.84,29.75,19,4,22,0.17
2013-9-28,62,52,45,45,41,38,90,69,45,29.79,29.70,16,2,16,0.00
2013-9-29,74,57,44,51,43,38,81,62,33,29.74,29.46,11,4,21,0.00
2013-9-30,76,60,48,50,44,38,87,59,33,29.54,29.34,12,3,26,0.02
2013-10-1,65,54,45,43,37,33,73,53,33,29.86,29.54,14,4,19,0.00
2013-10-2,64,55,46,44,38,32,74,55,32,29.96,29.85,8,2,12,0.00
2013-10-3,55,50,44,41,38,36,80,65,53,30.18,29.95,7,3,11,0.00
2013-10-4,43,39,37,39,33,30,90,81,75,30.31,30.17,10,6,24,0.03
2013-10-5,47,39,34,37,32,30,89,77,57,30.18,30.04,17,6,33,0.00
2013-10-6,68,50,33,47,38,30,93,66,31,30.05,29.89,7,2,10,0.00
2013-10-7,66,51,38,46,41,36,92,70,41,29.91,29.60,11,2,18,0.00
2013-10-8,66,54,44,48,43,37,90,69,40,29.80,29.51,8,2,14,0.00
2013-10-9,64,54,46,43,40,36,88,63,35,29.99,29.81,4,1,5,0.00
2013-10-10,67,54,41,51,44,37,87,71,45,29.94,29.58,5,1,8,0.00
2013-10-11,59,52,44,57,50,43,97,95,87,29.59,29.27,27,7,38,2.03
2013-10-12,52,47,42,43,35,31,94,65,48,30.18,29.53,19,7,36,0.00
2013-10-13,56,44,32,40,33,28,93,69,38,30.33,30.19,4,1,7,0.04
2013-10-14,43,41,36,42,39,34,95,94,92,30.26,30.08,16,6,19,1.04
2013-10-15,48,41,36,37,35,30,94,80,54,30.24,30.05,14,5,24,0.03
2013-10-16,55,44,32,43,35,28,86,72,52,30.05,29.84,14,3,19,0.00
2013-10-17,45,41,37,38,32,27,91,71,52,30.05,29.93,16,6,21,0.04
2013-10-18,46,40,34,39,34,28,91,80,57,30.00,29.78,13,4,19,0.03
2013-10-19,48,40,33,40,34,25,90,78,66,29.82,29.58,13,2,20,0.02
2013-10-20,45,37,31,42,32,21,93,83,62,30.02,29.58,23,7,26,0.06
2013-10-21,36,32,28,30,25,21,95,78,64,30.02,29.94,8,1,9,0.00
2013-10-22,35,32,29,31,29,27,95,90,80,30.15,29.98,5,1,9,0.06
2013-10-23,37,34,31,31,29,26,95,83,69,30.29,30.05,14,4,18,0.10
2013-10-24,39,34,28,31,28,25,90,80,66,30.36,30.22,8,2,12,0.00
2013-10-25,58,42,26,44,33,24,91,72,41,30.21,29.93,21,8,28,0.00
2013-10-26,46,38,32,31,27,26,82,67,46,30.24,29.84,17,5,26,0.00
2013-10-27,46,37,24,37,30,18,85,74,60,30.38,29.79,16,6,20,0.00
2013-10-28,27,23,20,18,17,15,84,77,69,30.59,30.39,12,4,17,0.00
2013-10-29,39,29,22,26,22,17,84,75,58,30.50,30.10,6,1,11,0.00
2013-10-30,41,33,28,34,29,25,93,85,74,30.09,29.67,8,3,11,0.00
2013-10-31,45,38,29,37,33,27,94,84,71,29.66,29.53,10,2,17,0.00
2013-11-1,44,41,36,37,35,31,88,78,65,29.97,29.58,19,8,32,0.01
2013-11-2,54,41,26,35,29,23,93,66,31,30.05,29.73,7,2,12,0.00
2013-11-3,49,42,33,38,32,28,81,68,58,29.72,29.49,9,3,16,0.00
2013-11-4,38,32,27,31,22,15,77,66,47,30.07,29.66,17,7,28,0.00
2013-11-5,37,26,16,23,18,12,84,72,54,30.23,30.07,11,3,20,0.00
2013-11-6,45,31,24,29,23,16,89,73,37,30.26,30.07,12,4,19,0.00
2013-11-7,44,32,20,28,22,15,85,68,46,30.27,29.99,8,2,13,0.00
2013-11-8,46,39,32,39,32,23,86,76,66,29.97,29.55,21,5,34,0.00
2013-11-9,38,31,21,33,25,18,87,77,69,30.30,29.79,26,8,38,0.00
2013-11-10,35,24,16,30,16,-1,90,74,45,30.47,30.18,15,6,19,0.00
2013-11-11,21,12,4,4,1,-6,86,62,36,30.79,30.48,8,2,16,0.00
2013-11-12,49,27,10,32,20,3,86,74,52,30.77,30.11,11,5,15,0.00
2013-11-13,51,37,32,38,16,-100,81,61,58,30.11,29.83,13,-137,17,0.00
2013-11-14,46,38,26,37,33,25,94,82,65,29.86,29.74,21,3,25,0.00
2013-11-15,54,36,24,34,26,22,94,72,38,29.75,29.36,12,3,15,0.00
2013-11-16,40,34,27,34,28,22,94,80,72,29.40,29.29,3,1,5,0.10
2013-11-17,34,29,26,33,26,22,95,90,80,29.99,29.41,13,4,16,0.00
2013-11-18,41,29,15,31,24,13,93,80,64,30.12,29.93,10,3,18,0.00
2013-11-19,39,33,28,32,28,24,91,82,75,29.92,29.51,9,3,18,0.00
2013-11-20,27,16,8,24,12,4,89,85,79,30.46,29.69,21,9,25,0.00
2013-11-21,13,6,0,8,2,-3,88,82,69,30.75,30.47,16,6,24,0.00
2013-11-22,19,9,-4,13,4,-7,85,79,70,30.95,30.54,17,6,19,0.00
2013-11-23,16,2,-12,9,-2,-16,85,80,71,30.97,30.45,9,3,14,0.00
2013-11-24,38,28,14,30,20,10,83,75,57,30.44,29.93,14,5,24,0.00
2013-11-25,34,28,16,28,23,11,83,79,76,30.37,30.00,24,11,32,0.00
2013-11-26,20,14,8,15,9,4,87,80,62,30.57,30.37,22,6,23,0.00
2013-11-27,29,21,10,23,16,6,87,81,74,30.37,29.99,22,10,27,0.00
2013-11-28,24,18,15,18,14,11,87,81,76,30.44,30.29,16,4,20,0.00
2013-11-29,34,24,14,28,20,11,92,84,69,30.29,30.03,10,3,16,0.00
2013-11-30,38,31,20,30,26,18,91,84,70,30.19,30.08,10,2,12,0.00
2013-12-1,35,27,15,31,24,12,93,89,82,30.16,29.69,5,1,8,0.00
2013-12-2,32,23,16,30,21,14,95,92,90,29.89,29.57,11,4,13,0.15
2013-12-3,16,9,6,14,7,3,91,88,86,30.14,29.87,11,6,19,0.00
2013-12-4,7,5,-1,4,2,-4,88,87,84,30.20,30.09,22,11,33,0.00
2013-12-5,0,-3,-6,-4,-7,-9,86,85,84,30.53,30.19,22,7,36,0.00
2013-12-6,-5,-8,-12,-9,-12,-16,85,83,82,30.76,30.54,20,3,25,0.00
2013-12-7,-7,-14,-21,-11,-18,-25,83,81,79,30.76,30.52,6,1,9,0.00
2013-12-8,-2,-10,-21,-6,-14,-26,85,83,79,30.51,30.18,13,2,22,0.00
2013-12-9,12,-2,-12,9,-5,-16,91,85,81,30.27,29.81,21,5,36,0.00
2013-12-10,16,3,-7,14,0,-11,92,86,79,30.54,30.01,22,9,32,0.00
2013-12-11,18,-1,-16,14,-5,-21,86,83,80,30.56,30.27,12,4,23,0.00
2013-12-12,27,14,8,20,10,4,88,84,76,30.33,30.15,10,2,13,0.00
2013-12-13,8,-4,-7,4,-8,-11,86,83,81,30.45,30.16,10,3,14,0.00
2013-12-14,7,2,-4,3,-2,-8,89,82,78,30.43,30.22,17,4,20,0.00
2013-12-15,9,3,-1,5,-1,-6,88,84,80,30.22,29.92,8,3,13,0.00
2013-12-16,34,29,8,28,24,5,95,82,74,30.07,29.93,21,6,24,0.01
2013-12-17,28,23,19,22,18,14,84,79,74,30.18,29.72,11,4,19,0.00
2013-12-18,37,26,2,28,20,-2,88,78,69,30.11,29.62,19,6,27,0.02
2013-12-19,2,-2,-6,-3,-6,-9,86,82,80,30.36,30.12,9,2,13,0.00
2013-12-20,3,-1,-9,-2,-5,-13,86,83,79,30.28,29.91,4,1,10,0.00
2013-12-21,-3,-8,-12,-7,-12,-16,85,83,82,30.33,29.96,6,2,8,0.00
2013-12-22,-6,-9,-18,-11,-14,-22,82,81,77,30.68,30.32,4,1,8,0.00
2013-12-23,1,-14,-23,-3,-18,-28,83,80,78,30.72,30.22,12,3,22,0.00
2013-12-24,30,20,2,29,16,-3,95,86,82,30.22,30.08,18,6,25,0.00
2013-12-25,30,26,21,28,22,18,95,85,79,30.25,30.02,19,4,26,0.00
2013-12-26,32,26,23,27,23,19,93,87,80,30.09,29.95,15,4,19,0.00
2013-12-27,43,36,26,34,30,22,90,80,70,29.99,29.75,11,3,16,0.12
2013-12-28,38,11,-6,29,6,-13,91,80,70,30.58,29.65,22,7,29,0.00
2013-12-29,5,-2,-8,1,-8,-15,86,76,70,30.59,30.10,11,4,18,0.00
2013-12-30,6,1,-3,3,-3,-8,87,83,76,30.38,30.07,10,3,13,0.00
2013-12-31,-3,-9,-13,-8,-14,-18,82,78,71,30.46,30.29,6,2,8,0.00
2014-1-1,-1,-6,-9,-8,-11,-14,82,79,73,30.58,30.43,5,1,8,0.00
2014-1-2,11,-4,-14,8,-8,-19,88,83,74,30.56,29.93,13,4,20,0.00